Location: Beaver Brook Station
(42.3793°N, 71.2203°W)
Time: 05:59:37
(UTC+00:00)

X-37B - Pass Details

Date: 29 January 2021
Orbit: 383 x 391 km, 45.0° (Epoch: 27 February)

Event Time Altitude Azimuth Distance (km) Brightness Sun altitude
Rises 22:58:03 0° 287° (WNW) 2,273 5.6 -11.8°
Reaches altitude 10° 23:00:08 10° 287° (WNW) 1,418 4.4 -12.2°
Maximum altitude 23:03:19 83° 200° (SSW) 396 0.6 -12.7°
Enters shadow 23:05:25 20° 113° (ESE) 975 2.1 -13.1°
